K1PH Weather Reports


time (UTC)temp
C
wind
direction
speed
KPH
gust
KPH
rain 1hr
cm
rain 24hr
cm
rain mn
cm
humidity
%
barometer
mb
20260504081007 2 131 0.0 0.0 0.00 0.00 0.00 83 991.3
20260504045007 1 113 0.0 0.0 0.00 0.00 0.00 86 991.3
20260504044006 1 113 1.6 3.2 0.00 0.00 0.00 86 991.3
20260504043006 1 124 0.0 0.0 0.00 0.00 0.00 86 991.3
20260504042006 1 124 0.0 0.0 0.00 0.00 0.00 87 991.3
20260504035006 0 124 1.6 1.6 0.00 0.00 0.00 88 991.1
20260504034006 0 137 0.0 0.0 0.00 0.00 0.00 88 991.1
20260504033006 0 137 0.0 0.0 0.00 0.00 0.00 88 991.0
20260504032006 0 137 0.0 0.0 0.00 0.00 0.00 87 990.9
20260504031010 0 137 0.0 1.6 0.00 0.00 0.00 86 991.0
20260504030006 1 280 0.0 0.0 0.00 0.00 0.00 86 990.9
20260504025006 1 280 0.0 1.6 0.00 0.00 0.00 86 990.9
20260504024006 1 275 0.0 3.2 0.00 0.00 0.00 85 990.9
20260504023006 1 284 0.0 1.6 0.00 0.00 0.00 84 990.9
20260504022006 1 292 0.0 1.6 0.00 0.00 0.00 84 990.9
20260504021006 2 301 0.0 0.0 0.00 0.00 0.00 83 990.8
20260504020006 2 301 0.0 0.0 0.00 0.00 0.00 82 990.7
20260504015007 2 301 0.0 1.6 0.00 0.00 0.00 82 990.6
20260504013006 3 291 0.0 1.6 0.00 0.00 0.00 80 990.4
20260504012005 3 284 0.0 3.2 0.00 0.00 0.00 77 990.2
20260504010005 4 268 0.0 1.6 0.00 0.00 0.00 74 989.8
20260504005005 4 277 1.6 3.2 0.00 0.00 0.00 71 989.7
20260504004006 5 278 1.6 3.2 0.00 0.00 0.00 72 989.5
20260504003009 5 283 1.6 1.6 0.00 0.00 0.00 69 989.5
20260504001005 6 269 0.0 0.0 0.00 0.00 0.00 66 989.3
20260504000005 7 269 0.0 0.0 0.00 0.00 0.00 68 989.1
20260503235005 7 269 0.0 0.0 0.00 0.00 0.00 61 989.1
20260503234005 8 269 0.0 1.6 0.00 0.00 0.00 52 989.1
20260503232006 10 293 1.6 3.2 0.00 0.00 0.00 41 988.9
20260503231006 10 307 4.8 8.0 0.00 0.00 0.00 38 988.8
20260503230006 11 296 3.2 8.0 0.00 0.00 0.00 37 988.9
20260503225005 11 292 4.8 8.0 0.00 0.00 0.00 38 988.9
20260503223006 11 290 3.2 11.3 0.00 0.00 0.00 36 988.7
20260503222005 11 272 4.8 11.3 0.00 0.00 0.00 38 988.8
20260503221006 10 264 4.8 14.5 0.00 0.00 0.00 38 988.7
20260503220005 10 279 4.8 12.9 0.00 0.00 0.00 39 988.7
20260503215005 10 310 4.8 9.7 0.00 0.00 0.00 41 988.6
20260503214005 10 306 4.8 11.3 0.00 0.00 0.00 38 988.6
20260503213005 10 284 3.2 12.9 0.00 0.00 0.00 41 988.5
20260503212005 10 280 4.8 11.3 0.00 0.00 0.00 40 988.5
20260503211005 10 320 6.4 12.9 0.00 0.00 0.00 41 988.5
20260503210006 10 279 4.8 12.9 0.00 0.00 0.00 42 988.5
20260503205005 10 87 8.0 12.9 0.00 0.00 0.00 40 988.5
20260503204005 10 284 3.2 12.9 0.00 0.00 0.00 40 988.6
20260503203005 10 291 4.8 12.9 0.00 0.00 0.00 41 988.6
20260503202010 10 308 8.0 19.3 0.00 0.00 0.00 38 988.5
20260503201010 10 298 9.7 19.3 0.00 0.00 0.00 37 988.4
20260503195010 10 302 4.8 12.9 0.00 0.00 0.00 42 988.5
20260503194010 10 291 8.0 14.5 0.00 0.00 0.00 40 988.5
20260503193010 9 295 6.4 12.9 0.00 0.00 0.00 42 988.5
20260503192010 10 278 8.0 12.9 0.00 0.00 0.00 41 988.6
20260503191010 10 303 8.0 16.1 0.00 0.00 0.00 40 988.5
20260503190010 10 276 9.7 16.1 0.00 0.00 0.00 39 988.5
20260503184010 10 300 4.8 19.3 0.00 0.00 0.00 41 988.6
20260503183009 10 308 11.3 19.3 0.00 0.00 0.00 42 988.6
20260503182010 10 290 6.4 14.5 0.00 0.00 0.00 40 988.4
20260503181010 10 292 4.8 14.5 0.00 0.00 0.00 42 988.4
20260503180009 11 268 3.2 12.9 0.00 0.00 0.00 41 988.4
20260503175009 10 265 8.0 22.5 0.00 0.00 0.00 40 988.2
20260503174009 10 293 8.0 12.9 0.00 0.00 0.00 41 988.3
20260503173009 9 281 4.8 14.5 0.00 0.00 0.00 43 988.4
20260503172010 9 303 6.4 14.5 0.00 0.00 0.00 46 988.5
20260503171010 9 272 14.5 19.3 0.00 0.00 0.00 44 988.3